Greybull, WY

9:29 AM MST on December 10, 2019 (GMT -0700)
South Big Horn County

Weather History for KGEY - October, 2019

Change the Weather History Date:

Saturday, October 5, 2019

  Actual Average Record
Temperature  
Mean Temperature 44 °F 50 °F  
Max Temperature 52 °F 65 °F 80 °F (2006)
Min Temperature 35 °F 36 °F 27 °F (2013)
Degree Days  
Heating Degree Days 21 15  
Month to date heating degree days 109 70  
Since 1 July heating degree days 284 301  
Cooling Degree Days 0 0  
Month to date cooling degree days 0 0  
Year to date cooling degree days 733 669  
Moisture  
Dew Point 33 °F    
Average Humidity 67    
Maximum Humidity 92    
Minimum Humidity 41    
Precipitation  
Precipitation 0.04 in 0.02 in 0.51 in (2008)
Month to date precipitation 0.25 0.13  
Year to date precipitation 7.57 6.46  
Sea Level Pressure  
Sea Level Pressure 30.15 in    
Wind  
Wind Speed 7 mph (SSW)    
Max Wind Speed 26 mph    
Max Gust Speed 35 mph    
Visibility 10 miles    
Events Rain    
T = Trace of Precipitation, MM = Missing Value Source: NWS Daily Summary

Daily Weather History Graph

Daily Weather History Graph

Search for Another Location

Airport or City:

Astronomy

Oct. 05, 2019 Rise Set
Actual Time 7:14 AM MDT 6:45 PM MDT
Civil Twilight 6:45 AM MDT 7:14 PM MDT
Nautical Twilight 6:12 AM MDT 7:48 PM MDT
Astronomical Twilight 5:37 AM MDT 8:22 PM MDT
Moon 2:56 PM MDT (10/5) 11:58 PM MDT (10/5)
Length of Visible Light 12h 29m
Length of Day
11h 31m
Waxing Crescent, 50% of the Moon is Illuminated
Oct 5
Waxing Crescent
Oct 13
Full
Oct 21
Last Quarter
Oct 27
New
Nov 4
First Quarter

Hourly Weather History & Observations

Time (MDT) Temp. Windchill Dew Point Humidity Pressure Visibility Wind Dir Wind Speed Gust Speed Precip Events Conditions
12:00 AM 43.0 °F 35.4 °F 39.9 °F 89% 30.03 in 10.0 mi NNW 16.1 mph - 0.00 in Rain Light Rain
12:53 AM 42.1 °F 31.3 °F 37.0 °F 82% 30.05 in 10.0 mi NNW 29.9 mph 36.8 mph 0.03 in   Overcast
1:53 AM 41.0 °F 31.6 °F 36.0 °F 82% 30.09 in 10.0 mi NW 20.7 mph 31.1 mph 0.04 in Rain Light Rain
2:53 AM 42.1 °F 37.1 °F 37.0 °F 82% 30.09 in 10.0 mi NNW 8.1 mph - 0.00 in   Overcast
3:53 AM 42.1 °F 37.1 °F 37.0 °F 82% 30.12 in 10.0 mi NW 8.1 mph - N/A   Overcast
4:53 AM 43.0 °F 37.2 °F 34.0 °F 71% 30.13 in 10.0 mi NNW 10.4 mph - N/A   Partly Cloudy
5:53 AM 37.9 °F 30.5 °F 34.0 °F 86% 30.16 in 10.0 mi WSW 11.5 mph - N/A   Clear
6:53 AM 35.1 °F 30.1 °F 32.0 °F 89% 30.20 in 10.0 mi South 5.8 mph - N/A   Clear
7:53 AM 36.0 °F - 33.1 °F 89% 30.21 in 10.0 mi Calm Calm - N/A   Clear
8:53 AM 39.9 °F 35.1 °F 35.1 °F 83% 30.21 in 10.0 mi East 6.9 mph - N/A   Clear
9:53 AM 44.1 °F 40.8 °F 35.1 °F 71% 30.20 in 10.0 mi SSE 5.8 mph - N/A   Clear
10:53 AM 46.9 °F - 33.1 °F 59% 30.20 in 10.0 mi SE 6.9 mph - N/A   Clear
11:53 AM 50.0 °F - 33.1 °F 52% 30.17 in 10.0 mi SSE 8.1 mph - N/A   Clear
12:53 PM 50.0 °F - 33.1 °F 52% 30.16 in 10.0 mi SSE 6.9 mph - N/A   Partly Cloudy
1:53 PM 51.1 °F - 32.0 °F 48% 30.12 in 10.0 mi SSE 5.8 mph - N/A   Clear
2:53 PM 52.0 °F - 28.0 °F 40% 30.11 in 10.0 mi Calm Calm - N/A   Overcast
3:53 PM 50.0 °F - 28.0 °F 43% 30.10 in 10.0 mi South 12.7 mph 23.0 mph N/A   Overcast
4:53 PM 50.0 °F - 28.9 °F 44% 30.09 in 10.0 mi South 3.5 mph - N/A   Overcast
5:53 PM 50.0 °F - 33.1 °F 52% 30.12 in 10.0 mi SSE 3.5 mph - N/A   Overcast
6:53 PM 48.0 °F - 33.1 °F 56% 30.14 in 10.0 mi WSW 4.6 mph - N/A   Mostly Cloudy
7:53 PM 45.0 °F 41.2 °F 30.0 °F 56% 30.17 in 10.0 mi West 6.9 mph - N/A   Clear
8:53 PM 43.0 °F 37.7 °F 30.9 °F 62% 30.17 in 10.0 mi WNW 9.2 mph - N/A   Clear
9:53 PM 37.9 °F 33.5 °F 30.9 °F 76% 30.19 in 10.0 mi WSW 5.8 mph - N/A   Clear
10:53 PM 37.0 °F 33.3 °F 32.0 °F 82% 30.21 in 10.0 mi ESE 4.6 mph - N/A   Scattered Clouds
11:53 PM 39.0 °F 34.8 °F 32.0 °F 76% 30.21 in 10.0 mi SSE 5.8 mph - N/A   Mostly Cloudy